Year,Month,Day,Hour,Minute,Value (Times are PST for temperature in C)
2012,10,22,09,29,7.70
2012,10,22,09,30,7.70
2012,10,22,09,31,7.70
2012,10,22,09,32,7.70
2012,10,22,09,33,7.70
2012,10,22,09,34,7.70
2012,10,22,09,35,7.70
2012,10,22,09,36,7.70
2012,10,22,09,37,7.70
2012,10,22,09,38,7.70
2012,10,22,09,39,7.70
2012,10,22,09,40,7.60
2012,10,22,09,41,7.60
2012,10,22,09,42,7.60
2012,10,22,09,43,7.60
2012,10,22,09,44,7.60
2012,10,22,09,45,7.60
2012,10,22,09,46,7.60
2012,10,22,09,47,7.60
2012,10,22,09,48,7.60
2012,10,22,09,49,7.60
2012,10,22,09,50,7.60
2012,10,22,09,51,7.60
2012,10,22,09,52,7.60
2012,10,22,09,53,7.60
2012,10,22,09,54,7.60
2012,10,22,09,55,7.60
2012,10,22,09,56,7.60
2012,10,22,09,57,7.60
2012,10,22,09,58,7.60
2012,10,22,09,59,7.60
2012,10,22,10,00,7.60
2012,10,22,10,01,7.60
2012,10,22,10,02,7.60
2012,10,22,10,03,7.60
2012,10,22,10,04,7.60
2012,10,22,10,05,7.60
2012,10,22,10,06,7.60
2012,10,22,10,07,7.60
2012,10,22,10,08,7.60
2012,10,22,10,09,7.60
2012,10,22,10,10,7.70
2012,10,22,10,11,7.70
2012,10,22,10,12,7.70
2012,10,22,10,13,7.70
2012,10,22,10,14,7.70
2012,10,22,10,15,7.70
2012,10,22,10,16,7.70
2012,10,22,10,17,7.70
2012,10,22,10,18,7.70
2012,10,22,10,19,7.70
2012,10,22,10,20,7.70
2012,10,22,10,21,7.70
2012,10,22,10,22,7.70
2012,10,22,10,23,7.70
2012,10,22,10,24,7.70
2012,10,22,10,25,7.70
2012,10,22,10,26,7.70
2012,10,22,10,27,7.70
2012,10,22,10,28,7.70
2012,10,22,10,29,7.70
2012,10,22,10,30,7.60
2012,10,22,10,31,7.70
2012,10,22,10,32,7.70
2012,10,22,10,33,7.70
2012,10,22,10,34,7.70
2012,10,22,10,35,7.70
2012,10,22,10,36,7.70
2012,10,22,10,37,7.60
2012,10,22,10,38,7.60
2012,10,22,10,39,7.60
2012,10,22,10,40,7.60
2012,10,22,10,41,7.60
2012,10,22,10,42,7.60
2012,10,22,10,43,7.60
2012,10,22,10,44,7.60
2012,10,22,10,45,7.60
2012,10,22,10,46,7.60
2012,10,22,10,47,7.60
2012,10,22,10,48,7.60
2012,10,22,10,49,7.60
2012,10,22,10,50,7.60
2012,10,22,10,51,7.50
2012,10,22,10,52,7.50
2012,10,22,10,53,7.50
2012,10,22,10,54,7.50
2012,10,22,10,55,7.50
2012,10,22,10,56,7.50
2012,10,22,10,57,7.60
2012,10,22,10,58,7.60
2012,10,22,10,59,7.60
2012,10,22,11,00,7.60
2012,10,22,11,01,7.60
2012,10,22,11,02,7.60
2012,10,22,11,03,7.60
2012,10,22,11,04,7.60
2012,10,22,11,05,7.60
2012,10,22,11,06,7.60
2012,10,22,11,07,7.60
2012,10,22,11,08,7.60
2012,10,22,11,09,7.60
2012,10,22,11,10,7.60
2012,10,22,11,11,7.60
2012,10,22,11,12,7.60
2012,10,22,11,13,7.60
2012,10,22,11,14,7.60
2012,10,22,11,15,7.60
2012,10,22,11,16,7.70
2012,10,22,11,17,7.70
2012,10,22,11,18,7.70
2012,10,22,11,19,7.70
2012,10,22,11,20,7.70
2012,10,22,11,21,7.80
2012,10,22,11,22,7.80
2012,10,22,11,23,7.80
2012,10,22,11,24,7.80
2012,10,22,11,25,7.80
2012,10,22,11,26,7.80
2012,10,22,11,27,7.80
2012,10,22,11,28,7.80
2012,10,22,11,29,7.80
2012,10,22,11,30,7.80
2012,10,22,11,31,7.80
2012,10,22,11,32,7.80
2012,10,22,11,33,7.80
2012,10,22,11,34,7.80
2012,10,22,11,35,7.80
2012,10,22,11,36,7.80
2012,10,22,11,37,7.80
2012,10,22,11,38,7.80
2012,10,22,11,39,7.80
2012,10,22,11,40,7.80
2012,10,22,11,41,7.80
2012,10,22,11,42,7.80
2012,10,22,11,43,7.80
2012,10,22,11,44,7.80
2012,10,22,11,45,7.80
2012,10,22,11,46,7.80
2012,10,22,11,47,7.80
2012,10,22,11,48,7.80
2012,10,22,11,49,7.80
2012,10,22,11,50,7.80
2012,10,22,11,51,7.80
2012,10,22,11,52,7.80
2012,10,22,11,53,7.80
2012,10,22,11,54,7.80
2012,10,22,11,55,7.80
2012,10,22,11,56,7.80
2012,10,22,11,57,7.80
2012,10,22,11,58,7.80
2012,10,22,11,59,7.80
2012,10,22,12,00,7.80
2012,10,22,12,01,7.80
2012,10,22,12,02,7.80
2012,10,22,12,03,7.90
2012,10,22,12,04,7.90
2012,10,22,12,05,7.90
2012,10,22,12,06,7.90
2012,10,22,12,07,8.00
2012,10,22,12,08,8.00
2012,10,22,12,09,8.00
2012,10,22,12,10,8.00
2012,10,22,12,11,8.10
2012,10,22,12,12,8.10
2012,10,22,12,13,8.20
2012,10,22,12,14,8.20
2012,10,22,12,15,8.20
2012,10,22,12,16,8.30
2012,10,22,12,17,8.30
2012,10,22,12,18,8.40
2012,10,22,12,19,8.40
2012,10,22,12,20,8.50
2012,10,22,12,21,8.50
2012,10,22,12,22,8.50
2012,10,22,12,23,8.50
2012,10,22,12,24,8.50
2012,10,22,12,25,8.50
2012,10,22,12,26,8.50
2012,10,22,12,27,8.60
2012,10,22,12,28,8.60
2012,10,22,12,29,8.60
2012,10,22,12,30,8.60
2012,10,22,12,31,8.60
2012,10,22,12,32,8.60
2012,10,22,12,33,8.60
2012,10,22,12,34,8.60
2012,10,22,12,35,8.60
2012,10,22,12,36,8.60
2012,10,22,12,37,8.60
2012,10,22,12,38,8.60
2012,10,22,12,39,8.60
2012,10,22,12,40,8.60
2012,10,22,12,41,8.60
2012,10,22,12,42,8.60
2012,10,22,12,43,8.60
2012,10,22,12,44,8.50
2012,10,22,12,45,8.50
2012,10,22,12,46,8.50
2012,10,22,12,47,8.60
2012,10,22,12,48,8.60
2012,10,22,12,49,8.60
2012,10,22,12,50,8.60
2012,10,22,12,51,8.60
2012,10,22,12,52,8.70
2012,10,22,12,53,8.70
2012,10,22,12,54,8.70
2012,10,22,12,55,8.60
2012,10,22,12,56,8.60
2012,10,22,12,57,8.60
2012,10,22,12,58,8.60
2012,10,22,12,59,8.60
2012,10,22,13,00,8.60
2012,10,22,13,01,8.60
2012,10,22,13,02,8.60
2012,10,22,13,03,8.60
2012,10,22,13,04,8.60
2012,10,22,13,05,8.60
2012,10,22,13,06,8.60
2012,10,22,13,07,8.60
2012,10,22,13,08,8.60
2012,10,22,13,09,8.60
2012,10,22,13,10,8.60
2012,10,22,13,11,8.60
2012,10,22,13,12,8.60
2012,10,22,13,13,8.60
2012,10,22,13,14,8.60
2012,10,22,13,15,8.60
2012,10,22,13,16,8.60
2012,10,22,13,17,8.70
2012,10,22,13,18,8.70
2012,10,22,13,19,8.70
2012,10,22,13,20,8.60
2012,10,22,13,21,8.60
2012,10,22,13,22,8.60
2012,10,22,13,23,8.60
2012,10,22,13,24,8.60
2012,10,22,13,25,8.60
2012,10,22,13,26,8.60
2012,10,22,13,27,8.60
2012,10,22,13,28,8.50
2012,10,22,13,29,8.50
2012,10,22,13,30,8.50
2012,10,22,13,31,8.50
2012,10,22,13,32,8.50
2012,10,22,13,33,8.50
2012,10,22,13,34,8.50
2012,10,22,13,35,8.50
2012,10,22,13,36,8.50
2012,10,22,13,37,8.50
2012,10,22,13,38,8.50
2012,10,22,13,39,8.60
2012,10,22,13,40,8.60
2012,10,22,13,41,8.60
2012,10,22,13,42,8.60
2012,10,22,13,43,8.60
2012,10,22,13,44,8.60
2012,10,22,13,45,8.60
2012,10,22,13,46,8.60
2012,10,22,13,47,8.60
2012,10,22,13,48,8.60
2012,10,22,13,49,8.60
2012,10,22,13,50,8.60
2012,10,22,13,51,8.60
2012,10,22,13,52,8.60
2012,10,22,13,53,8.50
2012,10,22,13,54,8.50
2012,10,22,13,55,8.50
2012,10,22,13,56,8.40
2012,10,22,13,57,8.40
2012,10,22,13,58,8.40
2012,10,22,13,59,8.40
2012,10,22,14,00,8.40
2012,10,22,14,01,8.40
2012,10,22,14,02,8.40
2012,10,22,14,03,8.50
2012,10,22,14,04,8.50
2012,10,22,14,05,8.50
2012,10,22,14,06,8.50
2012,10,22,14,07,8.50
2012,10,22,14,08,8.50
2012,10,22,14,09,8.50
2012,10,22,14,10,8.50
2012,10,22,14,11,8.40
2012,10,22,14,12,8.40
2012,10,22,14,13,8.40
2012,10,22,14,14,8.40
2012,10,22,14,15,8.40
2012,10,22,14,16,8.40
2012,10,22,14,17,8.50
2012,10,22,14,18,8.50
2012,10,22,14,19,8.50
2012,10,22,14,20,8.50
2012,10,22,14,21,8.40
2012,10,22,14,22,8.40
2012,10,22,14,23,8.40
2012,10,22,14,24,8.40
2012,10,22,14,25,8.40
2012,10,22,14,26,8.30
2012,10,22,14,27,8.30
2012,10,22,14,28,8.30
2012,10,22,14,29,8.30
2012,10,22,14,30,8.30
2012,10,22,14,31,8.40
2012,10,22,14,32,8.40
2012,10,22,14,33,8.40
2012,10,22,14,34,8.40
2012,10,22,14,35,8.30
2012,10,22,14,36,8.30
2012,10,22,14,37,8.30
2012,10,22,14,38,8.30
2012,10,22,14,39,8.30
2012,10,22,14,40,8.30
2012,10,22,14,41,8.30
2012,10,22,14,42,8.30
2012,10,22,14,43,8.30
2012,10,22,14,44,8.30
2012,10,22,14,45,8.30
2012,10,22,14,46,8.30
2012,10,22,14,47,8.30
2012,10,22,14,48,8.30
2012,10,22,14,49,8.30
2012,10,22,14,50,8.30
2012,10,22,14,51,8.30
2012,10,22,14,52,8.20
2012,10,22,14,53,8.20
2012,10,22,14,54,8.20
2012,10,22,14,55,8.20
2012,10,22,14,56,8.20
2012,10,22,14,57,8.20
2012,10,22,14,58,8.20
2012,10,22,14,59,8.20
2012,10,22,15,00,8.20
2012,10,22,15,01,8.20
2012,10,22,15,02,8.20
2012,10,22,15,03,8.20
2012,10,22,15,04,8.20
2012,10,22,15,05,8.10
2012,10,22,15,06,8.10
2012,10,22,15,07,8.10
2012,10,22,15,08,8.10
2012,10,22,15,09,8.10
2012,10,22,15,10,8.10
2012,10,22,15,11,8.10
2012,10,22,15,12,8.10
2012,10,22,15,13,8.10
2012,10,22,15,14,8.10
2012,10,22,15,15,8.10
2012,10,22,15,16,8.10
2012,10,22,15,17,8.10
2012,10,22,15,18,8.10
2012,10,22,15,19,8.10
2012,10,22,15,20,8.20
2012,10,22,15,21,8.10
2012,10,22,15,22,8.10
2012,10,22,15,23,8.10
2012,10,22,15,24,8.10
2012,10,22,15,25,8.10
2012,10,22,15,26,8.10
2012,10,22,15,27,8.10
2012,10,22,15,28,8.10
2012,10,22,15,29,8.10
2012,10,22,15,30,8.00
2012,10,22,15,31,8.00
2012,10,22,15,32,8.00
2012,10,22,15,33,7.90
2012,10,22,15,34,7.90
2012,10,22,15,35,7.90
2012,10,22,15,36,7.90
2012,10,22,15,37,7.90
2012,10,22,15,38,7.90
2012,10,22,15,39,7.90
2012,10,22,15,40,7.90
2012,10,22,15,41,7.90
2012,10,22,15,42,7.90
2012,10,22,15,43,7.90
2012,10,22,15,44,7.80
2012,10,22,15,45,7.80
2012,10,22,15,46,7.80
2012,10,22,15,47,7.80
2012,10,22,15,48,7.80
2012,10,22,15,49,7.80
2012,10,22,15,50,7.80
2012,10,22,15,51,7.80
2012,10,22,15,52,7.80
2012,10,22,15,53,7.80
2012,10,22,15,54,7.80
2012,10,22,15,55,7.80
2012,10,22,15,56,7.80
2012,10,22,15,57,7.80
2012,10,22,15,58,7.80
2012,10,22,15,59,7.70
2012,10,22,16,00,7.70
2012,10,22,16,01,7.70
2012,10,22,16,02,7.70
2012,10,22,16,03,7.60
2012,10,22,16,04,7.60
2012,10,22,16,05,7.60
2012,10,22,16,06,7.60
2012,10,22,16,07,7.60
2012,10,22,16,08,7.50
2012,10,22,16,09,7.50
2012,10,22,16,10,7.50
2012,10,22,16,11,7.50
2012,10,22,16,12,7.40
2012,10,22,16,13,7.40
2012,10,22,16,14,7.40
2012,10,22,16,15,7.30
2012,10,22,16,16,7.30
2012,10,22,16,17,7.30
2012,10,22,16,18,7.30
2012,10,22,16,19,7.30
2012,10,22,16,20,7.20
2012,10,22,16,21,7.20
2012,10,22,16,22,7.20
2012,10,22,16,23,7.20
2012,10,22,16,24,7.20
2012,10,22,16,25,7.20
2012,10,22,16,26,7.20
2012,10,22,16,27,7.20
2012,10,22,16,28,7.20
2012,10,22,16,29,7.20
2012,10,22,16,30,7.20
2012,10,22,16,31,7.20
2012,10,22,16,32,7.20
2012,10,22,16,33,7.10
2012,10,22,16,34,7.10
2012,10,22,16,35,7.10
2012,10,22,16,36,7.10
2012,10,22,16,37,7.10
2012,10,22,16,38,7.10
2012,10,22,16,39,7.10
2012,10,22,16,40,7.00
2012,10,22,16,41,7.00
2012,10,22,16,42,7.00
2012,10,22,16,43,7.00
2012,10,22,16,44,7.00
2012,10,22,16,45,7.00
2012,10,22,16,46,7.00
2012,10,22,16,47,7.00
2012,10,22,16,48,7.00
2012,10,22,16,49,7.00
2012,10,22,16,50,7.00
2012,10,22,16,51,7.00
2012,10,22,16,52,7.00
2012,10,22,16,53,7.00
2012,10,22,16,54,7.00
2012,10,22,16,55,7.00
2012,10,22,16,56,7.00
2012,10,22,16,57,7.00
2012,10,22,16,58,7.00
2012,10,22,16,59,7.00
2012,10,22,17,00,7.00
2012,10,22,17,01,7.00
2012,10,22,17,02,7.00
2012,10,22,17,03,7.00
2012,10,22,17,04,7.00
2012,10,22,17,05,7.00
